When you browse on this site, cookies collect data to enhance your experience and personalize the content and advertising you see.
Visit our Privacy Policy to learn more. By continuing to use the site, you agree to this use of cookies and data.
  • In Latvia
  • List of Countries
  • For 7 days
  • Water Temperature
  • Weather Map
  • Weather Widgets
  • user-avatar
    Login

    Hourly Weather Kireevka

    Today, 26 August, Monday

    Time Temperature Precipitation Wind Pressure Humidity
    00:00 +25°C° 0 mm 5 mps 756 mmHg 38%
    01:00 +23°C° 0 mm 5 mps 756 mmHg 41%
    02:00 +23°C° 0 mm 5 mps 756 mmHg 43%
    03:00 +22°C° 0 mm 5 mps 756 mmHg 46%
    04:00 +21°C° 0 mm 5 mps 756 mmHg 51%
    05:00 +21°C° 0 mm 5 mps 757 mmHg 57%
    06:00 +20°C° 0 mm 5 mps 757 mmHg 63%
    07:00 +21°C° 0 mm 5 mps 757 mmHg 58%
    08:00 +23°C° 0 mm 6 mps 757 mmHg 53%
    09:00 +24°C° 0 mm 6 mps 758 mmHg 48%
    10:00 +27°C° 0 mm 6 mps 758 mmHg 44%
    11:00 +28°C° 0 mm 5 mps 758 mmHg 39%
    12:00 +30°C° 0 mm 5 mps 757 mmHg 35%
    13:00 +30°C° 0 mm 5 mps 757 mmHg 34%
    14:00 +32°C° 0 mm 5 mps 757 mmHg 32%
    15:00 +32°C° 0 mm 5 mps 757 mmHg 31%
    16:00 +30°C° 0 mm 5 mps 757 mmHg 32%
    17:00 +30°C° 0 mm 5 mps 757 mmHg 33%
    18:00 +29°C° 0 mm 5 mps 756 mmHg 33%
    19:00 +27°C° 0 mm 5 mps 757 mmHg 35%
    20:00 +26°C° 0 mm 4 mps 757 mmHg 37%
    21:00 +23°C° 0 mm 4 mps 757 mmHg 39%
    22:00 +22°C° 0 mm 4 mps 757 mmHg 39%
    23:00 +21°C° 0 mm 4 mps 757 mmHg 40%

    Tomorrow, 27 August, Tuesday

    Time Temperature Precipitation Wind Pressure Humidity
    00:00 +21°C° 0 mm 4 mps 756 mmHg 40%
    01:00 +20°C° 0 mm 3 mps 756 mmHg 41%
    02:00 +20°C° 0 mm 3 mps 756 mmHg 42%
    03:00 +19°C° 0 mm 3 mps 756 mmHg 43%
    04:00 +19°C° 0 mm 3 mps 756 mmHg 45%
    05:00 +18°C° 0 mm 3 mps 756 mmHg 46%
    06:00 +18°C° 0 mm 3 mps 755 mmHg 48%
    07:00 +20°C° 0 mm 3 mps 755 mmHg 44%
    08:00 +23°C° 0 mm 4 mps 755 mmHg 39%
    09:00 +26°C° 0 mm 4 mps 755 mmHg 34%
    10:00 +27°C° 0 mm 4 mps 755 mmHg 32%
    11:00 +28°C° 0 mm 4 mps 755 mmHg 29%
    12:00 +30°C° 0 mm 4 mps 755 mmHg 26%
    13:00 +30°C° 0 mm 4 mps 754 mmHg 25%
    14:00 +30°C° 0 mm 4 mps 754 mmHg 23%
    15:00 +32°C° 0 mm 4 mps 754 mmHg 21%
    16:00 +30°C° 0 mm 4 mps 754 mmHg 23%
    17:00 +29°C° 0 mm 4 mps 753 mmHg 25%
    18:00 +28°C° 0 mm 4 mps 753 mmHg 27%
    19:00 +26°C° 0 mm 4 mps 753 mmHg 31%
    20:00 +23°C° 0 mm 4 mps 753 mmHg 36%
    21:00 +21°C° 0 mm 4 mps 754 mmHg 41%
    22:00 +20°C° 0 mm 4 mps 754 mmHg 43%
    23:00 +20°C° 0 mm 3 mps 754 mmHg 45%

    Day after tomorrow, 28 August, Wednesday

    Time Temperature Precipitation Wind Pressure Humidity
    00:00 +19°C° 0 mm 3 mps 754 mmHg 47%
    01:00 +19°C° 0 mm 3 mps 754 mmHg 50%
    02:00 +18°C° 0 mm 3 mps 753 mmHg 53%
    03:00 +18°C° 0 mm 3 mps 753 mmHg 56%
    04:00 +18°C° 0 mm 3 mps 753 mmHg 62%
    05:00 +17°C° 0 mm 3 mps 753 mmHg 67%
    06:00 +17°C° 0 mm 3 mps 753 mmHg 73%
    07:00 +19°C° 0 mm 3 mps 754 mmHg 66%
    08:00 +21°C° 0 mm 4 mps 754 mmHg 60%
    09:00 +23°C° 0 mm 4 mps 754 mmHg 54%
    10:00 +25°C° 0 mm 4 mps 754 mmHg 50%
    11:00 +26°C° 0 mm 5 mps 754 mmHg 45%
    12:00 +27°C° 0 mm 5 mps 754 mmHg 41%
    13:00 +27°C° 0 mm 5 mps 753 mmHg 39%
    14:00 +27°C° 0 mm 6 mps 753 mmHg 37%
    15:00 +27°C° 0 mm 6 mps 753 mmHg 34%
    16:00 +26°C° 0 mm 6 mps 753 mmHg 35%
    17:00 +24°C° 0 mm 6 mps 753 mmHg 36%
    18:00 +24°C° 0 mm 6 mps 754 mmHg 37%
    19:00 +22°C° 0 mm 5 mps 754 mmHg 39%
    20:00 +20°C° 0 mm 5 mps 754 mmHg 41%
    21:00 +19°C° 0 mm 5 mps 755 mmHg 43%
    22:00 +17°C° 0 mm 5 mps 755 mmHg 43%
    23:00 +15°C° 0 mm 5 mps 756 mmHg 42%

    29 August, Thursday

    Time Temperature Precipitation Wind Pressure Humidity
    00:00 +14°C° 0 mm 5 mps 756 mmHg 42%
    01:00 +13°C° 0 mm 4 mps 756 mmHg 46%
    02:00 +12°C° 0 mm 4 mps 756 mmHg 50%
    03:00 +11°C° 0 mm 4 mps 756 mmHg 54%
    04:00 +11°C° 0 mm 4 mps 757 mmHg 56%
    05:00 +10°C° 0 mm 4 mps 757 mmHg 59%
    06:00 +10°C° 0 mm 4 mps 757 mmHg 61%
    07:00 +11°C° 0 mm 4 mps 757 mmHg 56%
    08:00 +13°C° 0 mm 5 mps 757 mmHg 52%
    09:00 +14°C° 0 mm 5 mps 758 mmHg 47%
    10:00 +16°C° 0 mm 5 mps 757 mmHg 43%
    11:00 +19°C° 0 mm 5 mps 757 mmHg 38%
    12:00 +20°C° 0 mm 5 mps 757 mmHg 34%
    13:00 +21°C° 0 mm 5 mps 757 mmHg 32%
    14:00 +21°C° 0 mm 5 mps 756 mmHg 30%
    15:00 +22°C° 0 mm 6 mps 756 mmHg 28%
    16:00 +21°C° 0 mm 5 mps 756 mmHg 28%
    17:00 +21°C° 0 mm 5 mps 756 mmHg 29%
    18:00 +20°C° 0 mm 5 mps 756 mmHg 29%
    19:00 +19°C° 0 mm 4 mps 756 mmHg 33%
    20:00 +17°C° 0 mm 4 mps 756 mmHg 36%
    21:00 +15°C° 0 mm 4 mps 756 mmHg 39%
    22:00 +14°C° 0 mm 4 mps 756 mmHg 41%
    23:00 +14°C° 0 mm 4 mps 756 mmHg 43%

    30 August, Friday

    Time Temperature Precipitation Wind Pressure Humidity
    00:00 +13°C° 0 mm 4 mps 756 mmHg 45%
    01:00 +13°C° 0 mm 4 mps 756 mmHg 48%
    02:00 +12°C° 0 mm 4 mps 756 mmHg 51%
    03:00 +12°C° 0 mm 4 mps 756 mmHg 54%
    04:00 +11°C° 0 mm 4 mps 756 mmHg 56%
    05:00 +11°C° 0 mm 4 mps 756 mmHg 57%
    06:00 +11°C° 0 mm 4 mps 756 mmHg 59%
    07:00 +12°C° 0 mm 4 mps 756 mmHg 52%
    08:00 +14°C° 0 mm 5 mps 756 mmHg 46%
    09:00 +16°C° 0 mm 5 mps 757 mmHg 39%
    10:00 +17°C° 0 mm 6 mps 757 mmHg 35%
    11:00 +20°C° 0 mm 6 mps 756 mmHg 32%
    12:00 +21°C° 0 mm 6 mps 756 mmHg 28%
    13:00 +22°C° 0 mm 6 mps 756 mmHg 26%
    14:00 +22°C° 0 mm 6 mps 756 mmHg 25%
    15:00 +23°C° 0 mm 5 mps 756 mmHg 24%
    16:00 +22°C° 0 mm 5 mps 756 mmHg 24%
    17:00 +22°C° 0 mm 5 mps 756 mmHg 24%
    18:00 +21°C° 0 mm 5 mps 756 mmHg 24%
    19:00 +19°C° 0 mm 4 mps 756 mmHg 27%
    20:00 +17°C° 0 mm 4 mps 756 mmHg 29%
    21:00 +14°C° 0 mm 3 mps 756 mmHg 32%
    22:00 +14°C° 0 mm 3 mps 756 mmHg 34%
    23:00 +13°C° 0 mm 3 mps 756 mmHg 35%

    31 August, Saturday

    Time Temperature Precipitation Wind Pressure Humidity
    00:00 +12°C° 0 mm 3 mps 757 mmHg 36%
    01:00 +12°C° 0 mm 3 mps 757 mmHg 39%
    02:00 +11°C° 0 mm 3 mps 757 mmHg 42%
    03:00 +11°C° 0 mm 3 mps 757 mmHg 44%
    04:00 +11°C° 0 mm 3 mps 757 mmHg 47%
    05:00 +10°C° 0 mm 4 mps 757 mmHg 49%
    06:00 +10°C° 0 mm 4 mps 757 mmHg 51%
    07:00 +12°C° 0 mm 4 mps 757 mmHg 47%
    08:00 +15°C° 0 mm 5 mps 757 mmHg 43%
    09:00 +17°C° 0 mm 5 mps 758 mmHg 39%
    10:00 +19°C° 0 mm 5 mps 758 mmHg 35%
    11:00 +21°C° 0 mm 5 mps 758 mmHg 30%
    12:00 +22°C° 0 mm 5 mps 758 mmHg 26%
    13:00 +23°C° 0 mm 5 mps 758 mmHg 25%
    14:00 +23°C° 0 mm 5 mps 757 mmHg 23%
    15:00 +25°C° 0 mm 5 mps 757 mmHg 22%
    16:00 +23°C° 0 mm 4 mps 757 mmHg 23%
    17:00 +22°C° 0 mm 4 mps 757 mmHg 24%
    18:00 +22°C° 0 mm 4 mps 757 mmHg 24%
    19:00 +20°C° 0 mm 4 mps 757 mmHg 27%
    20:00 +18°C° 0 mm 3 mps 757 mmHg 30%
    21:00 +16°C° 0 mm 3 mps 758 mmHg 33%
    22:00 +14°C° 0 mm 3 mps 758 mmHg 34%
    23:00 +14°C° 0 mm 3 mps 758 mmHg 35%
    Show more